NOAA 16 DEB, 41214

Orbit data source: Space-Track

NOAA 16 DEB, 41214 is space debris in SSO originally from a launch on Thu, 21 Sep 2000 UTC launched from the Air Force Western Test Range (AFWTR). Debris objects in space refer to the collection of defunct objects orbiting the Earth. Examples of debris include non-operational satellites, rocket bodies, and fragments generated from explosions, collisions, or faulty payload assembly.

Loading next visibility...
Identifier
41214, 2000-055DT
Orbit
SSO
Country
Flag of USUS
Related business
Manufacturer
Unknown
Mission
Spacecraft
Bus & Motor
Unknown
Mass
Unknown
Launch date (UTC)
2000-09-21 (26 years ago)
Launch vehicle
Unknown
Launch site
Air Force Western Test Range (AFWTR)
Object type
Payload
Rocket body
Debris
Shape & HBR
Unknown shape, 0.1 m
Radar Cross Section
Medium (>0.1 m² and <1 m²)

Expand to show TLE details & history
Last TLE update: 1 day ago

TLE from 1 day ago
0 NOAA 16 DEB
1 41214U 00055DT  26236.31074622  .00005196  00000-0  14270-2 0  9993
2 41214  98.8008  11.0221 0024408 234.6668 125.2241 14.47288033556998
Epoch: 2026-08-24T07:27Z
TLE epoch observation values (Epoch: 2026-08-24T07:27:28.473Z)
Latitude
-0.00006°
Longitude
-73.44081°
Altitude
747.512 km
Speed
7.476 km/s
True Right ascension
00h 44m 05s
True Declination
0° 00' 00"
Sunlit
Object was in full shadow at epoch
Visualization orbit readout
Latitude
Unknown
Longitude
Unknown
Altitude
Unknown
Speed
Unknown
Apparent Right ascension
Unknown
Apparent Declination
Unknown
Sunlit
N/A
Visualization observer readout
Local Sidereal Time
03:27:47
Azimuth
Unknown
Elevation
Unknown
Doppler factor
Unknown
Orbital elements
Apogee altitude
749 km
Perigee altitude
714.293 km
Semi-major axis
7,109.784 km
Eccentricity
0.00244
Inclination
98.8008°
RAAN
11.0221°
Arg. of periapsis
234.6668°
True anomaly
125.45218°
Mean anomaly
125.2241°
Eccentric anomaly
125.33818°
Mean motion
3.62042 °/min
Orbital period
99.44 mins
BSTAR
0.001427
Loading maneuver chart data...
Computing Atmospheric mass density...
Loading historical data...
Loading historical data...
Loading historical data...
Loading historical data...
Loading historical data...
Loading historical data...
Loading historical data...

Documentation

Showing up to 5 results
|